Regional Weather Roundup
Issued by NWS Kansas City/Pleasant Hill, MO

Home | Current Version | Previous Version | Text Only | Print | Product List | Glossary On
Versions: 1 2 3 4 5 6 7 8 9 10 11 12 13 14 15 16 17 18 19 20 21 22 23 24 25 26 27 28 29 30 31 32 33 34 35 36 37 38 39 40 41 42 43 44 45 46 47 48 49 50
000
ASUS43 KEAX 291004
RWREAX

WEATHER ROUNDUP FOR EASTERN KANSAS AND NORTHWEST MISSOURI
NATIONAL WEATHER SERVICE KANSAS CITY/PLEASANT HILL MO
400 AM CST SAT NOV 29 2014

KSZ040-057-103>105-MOZ028-029-037-043-291100-
...KANSAS CITY METROPOLITAN AREA...

CITY           SKY/WX    TMP DP  RH WIND       PRES   REMARKS
K.C. INTL      CLOUDY    50  44  80 SW13      29.67S
K.C. DOWNTOWN  CLOUDY    51  44  77 SW7       29.68F
LEES SUMMIT    CLOUDY    53  45  74 SW14G24   29.69S
OLATHE - IXD   CLOUDY    47  44  90 S7        29.69F
OLATHE - OJC   CLOUDY    50  45  83 S8        29.68F
LAWRENCE       CLOUDY    43  38  82 CALM      29.69S

$$

MOZ001>008-011>017-020>025-030>033-038>040-044>046-053-054-291100-
...NORTHERN AND CENTRAL MISSOURI...

CITY           SKY/WX    TMP DP  RH WIND       PRES   REMARKS
ST. JOSEPH     CLOUDY    43  37  79 S8        29.66S
MOSBY          CLOUDY    52  43  71 S3        29.68S
WARRENSBURG    CLOUDY    50  45  81 S8        29.70S
WHITEMAN AFB   CLOUDY    53  47  78 SW16G23   29.70S
CLINTON        CLOUDY    52  46  82 S10       29.73F
SEDALIA        MOCLDY    54  46  74 SW22G31   29.70F
WARSAW         NOT AVBL
MARSHALL       CLOUDY    54  46  76 SW8       29.71F
CHILLICOTHE      N/A     41  37  86 S6        29.67S
KIRKSVILLE     MOCLDY    48  42  80 SW10      29.67F

$$

MOZ041-047>049-056>058-063>065-088>090-097-291100-
...EASTERN AND SOUTHERN MISSOURI...

CITY           SKY/WX    TMP DP  RH WIND       PRES   REMARKS
ST. LOUIS INTL CLOUDY    45  35  68 S8        29.81F
SPIRIT OF STL  CLOUDY    45  36  70 S6        29.79F
COLUMBIA       MOCLDY    43  38  82 S9        29.73F
JEFFERSON CITY MOCLDY    46  38  73 SE7       29.75F
MEXICO         MOCLDY    46  41  81 S10       29.73S
ROLLA          MOCLDY    46  38  73 S20       29.76F
LEBANON        CLOUDY    52  45  76 S10       29.79F
OSAGE BEACH    MOCLDY    45  37  76 S8        29.76F
SPRINGFIELD    CLOUDY    47  42  83 S13       29.79F
JOPLIN         MOCLDY    54  46  74 S14       29.78F
WEST PLAINS    CLOUDY    45  38  76 S8        29.87F

$$

IAZ060-094-KSZ022-034>040-054-083-096-NEZ052-066-093-291100-
...KANSAS...SOUTHEAST NEBRASKA AND IOWA...

CITY           SKY/WX    TMP DP  RH WIND       PRES   REMARKS
TOPEKA         CLOUDY    44  39  82 SE5       29.67F
MANHATTAN      CLOUDY    43  39  86 CALM      29.64F
EMPORIA        PTCLDY    45  42  89 S17       29.66F
CHANUTE        PTCLDY    50  46  86 S12       29.72F
WICHITA        PTCLDY    47  41  80 S10       29.65F
OMAHA          PTCLDY    35  31  85 SE9       29.57F WCI  28
LINCOLN        PTCLDY    32  27  81 S9        29.59F WCI  24
FALLS CITY     MOCLDY    48  38  68 S7        29.62F
LAMONI         MOCLDY    39  34  82 SW14      29.61F WCI  31
DES MOINES     CLEAR     35  30  82 S10       29.57F WCI  27

$$



USA.gov is the U.S. government's official web portal to all federal, state and local government web resources and services.